Torna al catalogo

GORIZONT 28

AttivoComunicazioniGEO
NORAD 22880·PAYLOAD·🇷🇺 Russia

Lanciato Oct 28, 1993 da Baikonur Cosmodrome

Loading…

TLE

AggiornatoSource: Space-Track

Epoca: Sep 14, 2026, 12:07 UTC

1 22880U 93069A   26257.50545858 -.00000208  00000-0  00000-0 0  9990
2 22880  14.0802 347.3807 0031505 177.5111 176.1311  0.99659810120017

Traccia GORIZONT 28 in tempo reale con AllMySat

Download on the App Store